Weather Service Report


664 
ASUS45 KBOU 010307
RWRCO 

WEATHER ROUNDUP FOR COLORADO
NATIONAL WEATHER SERVICE DENVER/BOULDER CO
800 PM MST SAT FEB 28 2015

NOTE: "FAIR" INDICATES FEW OR NO CLOUDS BELOW 12000 FEET WITH NO
SIGNIFICANT WEATHER AND/OR OBSTRUCTIONS TO VISIBILITY.

COZ001>005-013-030-031-010400-
...NORTHWEST COLORADO...
  
CITY           SKY/WX    TMP DP  RH WIND       PRES   REMARKS
CRAIG          LGT SNOW  29  27  92 CALM      29.82R FOG              
HAYDEN         CLOUDY    28  25  86 SE3       29.80R                  
MEEKER         LGT SNOW  30  28  92 CALM      29.80R FOG              
MOUNT WERNER   NOT AVBL                                               
STEAMBOAT SPGS CLOUDY    26  25  96 CALM      29.80R                  
WALDEN         CLOUDY    19  12  73 NW7       29.79R WCI  10          
$$

COZ006>008-011-010400-
...WEST CENTRAL VALLEYS...
  
CITY           SKY/WX    TMP DP  RH WIND       PRES   REMARKS
GRAND JUNCTION MOCLDY    31  27  85 S7        29.82R WCI  24          
MONTROSE       CLOUDY    34  30  85 SE5       29.86R WCI  30          
EAGLE          FLURRIES  30  28  93 SE6       29.83R WCI  24          
RIFLE          MOCLDY    33  25  72 S3        29.81R                  
DELTA          LGT RAIN  37  35  90 N8        29.85S                  
NUCLA          CLOUDY    36  30  80 NW5       29.90R                  
$$

COZ017>023-064>068-010400-
...SOUTHWEST COLORADO...
  
CITY           SKY/WX    TMP DP  RH WIND       PRES   REMARKS
DURANGO        CLOUDY    30  29  96 E5        29.91R WCI  25          
CORTEZ         FOG       32  31  96 NE3       29.89R VSB 1/4          
PAGOSA SPRINGS CLOUDY    29  29 100 CALM      29.92R                  
TELLURIDE      FLURRIES  29  19  65 SW16G26   29.88R WCI  18          
WOLF CREEK PAS SNOW      16  16 100 SW33G60   29.87R VSB 1/4 WCI  -5  
$$

COZ009-010-012-014-032>034-037-058>063-010400-
...CENTRAL COLORADO...
  
CITY           SKY/WX    TMP DP  RH WIND       PRES   REMARKS
ASPEN          LGT SNOW  28  26  92 CALM      29.79S FOG              
BUENA VISTA    LGT SNOW  25  23  92 E5        29.84S WCI  19          
COPPER MTN     CLOUDY    19  12  73 W15G26    29.79S HAZE    WCI   5  
BERTHOUD PASS  LGT SNOW  10   3  72 MISG      29.79R                  
COTTONWOOD PAS LGT SNOW  23  19  86 CALM      29.82R                  
GUNNISON       MOCLDY    25  19  80 CALM      29.87S                  
KREMMLING      MOCLDY    25  19  80 CALM      29.81S                  
LEADVILLE      LGT SNOW  17  16  95 S6        29.79R FOG     WCI   9  
SALIDA         CLOUDY    23  17  77 SE9G17    29.94R WCI  13          
SUNLIGHT       SNOW      21  19  93 CALM        N/A  VSB 1/2          
WILKERSON PASS LGT SNOW  16  12  86 SW5       29.83R WCI   9          
$$

COZ069>075-010400-
...SAN LUIS VALLEY/SANGRE DE CRISTO MOUNTAINS...
  
CITY           SKY/WX    TMP DP  RH WIND       PRES   REMARKS
ALAMOSA        CLOUDY    24  20  84 NW3       29.88R                  
LA VETA PASS   LGT SNOW  23  21  93 S12G23    29.85S WCI  12          
SAGUACHE       CLOUDY    23  21  93 CALM      29.90R                  
$$

COZ035-036-038>040-010400-
...NORTHERN COLORADO FRONT RANGE...
  
CITY           SKY/WX    TMP DP  RH WIND       PRES   REMARKS
DENVER INTL AP MOCLDY    17  10  74 SW6       29.99R WCI   9          
DMNS CITY PARK   N/A     19  12  73 E3G9      29.99S                  
AURORA         MOCLDY    15  10  80 CALM      29.98R                  
FRONT RANGE AP NOT AVBL                                               
ERIE MUNI ARPT CLOUDY    23  17  80 CALM      30.00R                  
BOULDER MUN AP LGT SNOW  21  21 100 CALM      29.99S                  
CENTENNIAL     CLOUDY    17  10  74 CALM      29.96R                  
BROOMFIELD     MOCLDY    19  16  86 CALM      29.98R HAZE             
FORT COLLINS   MOCLDY    21  16  79 SE5       30.02R WCI  15          
LONGMONT       LGT SNOW  24  21  86 W3        30.03R                  
$$

COZ041-046-047-076>085-087-088-010400-
...PIKES PEAK/PALMER DIVIDE AND SOUTHERN FOOTHILLS...
  
CITY           SKY/WX    TMP DP  RH WIND       PRES   REMARKS
COLO. SPRINGS  LGT SNOW  16  12  84 S5        29.97R FOG     WCI   9  
A. F. ACADEMY  MOCLDY    16  12  85 S9        29.94R WCI   4          
ELLICOTT       NOT AVBL                                               
FALCON         MOCLDY    12  10  95 W3        29.94R FOG              
FORT CARSON    CLOUDY    16  12  83 S6        29.97S WCI   8          
LIMON          CLOUDY    13  10  88 S5        29.99R WCI   5          
MONUMENT HILL  MOCLDY     9   5  85 W3        29.91R                  
TRINIDAD       LGT SNOW  18  15  88 CALM      29.98R FOG              
$$

COZ042>045-048>051-090-091-010400-
...NORTHEAST COLORADO...
  
CITY           SKY/WX    TMP DP  RH WIND       PRES   REMARKS
GREELEY ARPT   MOCLDY    21  10  63 E6        30.01S WCI  14          
AKRON          CLOUDY    20  15  81 E6        30.02R WCI  12          
BURLINGTON     CLOUDY    18  11  74 S3        30.07R                  
WRAY           CLOUDY    22  14  72 CALM      30.11R                  
STERLING       MOCLDY    23  18  80 CALM      30.06R                  
HOLYOKE        NOT AVBL                                               
FORT MORGAN    PTCLDY    21  15  78 E3        30.04S                  
$$

COZ086-089-092>099-010400-
...SOUTHEAST COLORADO...
  
CITY           SKY/WX    TMP DP  RH WIND       PRES   REMARKS
PUEBLO         CLOUDY    20  13  74 CALM      30.05R                  
LA JUNTA       PTCLDY    16  12  84 N3        30.07R                  
LAMAR          PTCLDY    19  16  88 E3        30.08R                  
SPRINGFIELD      N/A     20  16  84 N7        30.04R WCI  11          
$$

Return to Home page


Western Regional Climate Center, wrcc@dri.edu